CW8306 Weather Reports


Display with metric or nautical units.
time (UTC)temp
F
wind
direction
speed
MPH
gust
MPH
rain 1hr
in
rain 24hr
in
rain mn
in
humidity
%
barometer
mb
20260510105633 34 343 3.0 3.0 0.00 0.00 0.00 71 1023.0
20260510105126 34 344 1.0 2.0 0.00 0.00 0.00 71 1022.8
20260510104624 34 344 2.0 7.0 0.00 0.00 0.00 71 1022.7
20260510104121 34 215 1.0 5.0 0.00 0.00 0.00 71 1022.6
20260510103617 34 227 1.0 5.0 0.00 0.00 0.00 71 1022.9
20260510103113 34 225 1.0 2.0 0.00 0.00 0.00 71 1022.5
20260510102609 34 226 2.0 2.0 0.00 0.00 0.00 72 1022.5
20260510102105 34 257 1.0 2.0 0.00 0.00 0.00 71 1022.5
20260510101603 34 264 2.0 2.0 0.00 0.00 0.00 71 1022.4
20260510101101 34 239 2.0 3.0 0.00 0.00 0.00 71 1022.6
20260510100556 34 265 0.0 1.0 0.00 0.00 0.00 71 1022.3
20260510100054 34 62 0.0 1.0 0.00 0.00 0.00 71 1022.5
20260510095550 34 217 0.0 2.0 0.00 0.00 0.00 71 1022.2
20260510095050 34 74 3.0 3.0 0.00 0.00 0.00 71 1022.3
20260510094544 34 233 0.0 2.0 0.00 0.00 0.00 70 1022.3
20260510094040 34 235 1.0 2.0 0.00 0.00 0.00 70 1022.1
20260510093536 34 228 1.0 2.0 0.00 0.00 0.00 70 1022.1
20260510093033 34 184 1.0 2.0 0.00 0.00 0.00 70 1022.0
20260510092530 34 229 1.0 2.0 0.00 0.00 0.00 70 1022.3
20260510092030 34 222 1.0 2.0 0.00 0.00 0.00 70 1022.0
20260510091527 34 312 1.0 2.0 0.00 0.00 0.00 70 1022.0
20260510091022 34 223 0.0 2.0 0.00 0.00 0.00 70 1021.9
20260510090520 34 235 0.0 1.0 0.00 0.00 0.00 70 1022.1
20260510090015 34 247 1.0 2.0 0.00 0.00 0.00 69 1021.7
20260510085510 35 273 2.0 2.0 0.00 0.00 0.00 69 1021.6
20260510085006 35 146 1.0 2.0 0.00 0.00 0.00 69 1021.8
20260510084503 35 215 0.0 2.0 0.00 0.00 0.00 69 1021.6
20260510083959 35 201 0.0 2.0 0.00 0.00 0.00 68 1021.6
20260510083456 35 234 1.0 2.0 0.00 0.00 0.00 68 1021.8
20260510082951 35 224 0.0 3.0 0.00 0.00 0.00 67 1021.5
20260510082450 35 222 1.0 2.0 0.00 0.00 0.00 68 1021.5
20260510081949 36 268 1.0 3.0 0.00 0.00 0.00 67 1021.3
20260510081445 36 207 0.0 2.0 0.00 0.00 0.00 67 1021.4
20260510080941 36 245 1.0 5.0 0.00 0.00 0.00 67 1021.5
20260510080440 36 301 3.0 7.0 0.00 0.00 0.00 67 1021.4
20260510075937 37 216 1.0 7.0 0.00 0.00 0.00 66 1021.4
20260510075435 37 256 2.0 5.0 0.00 0.00 0.00 67 1021.2
20260510074931 37 187 2.0 3.0 0.00 0.00 0.00 67 1021.2
20260510074429 37 223 1.0 3.0 0.00 0.00 0.00 67 1021.1
20260510073925 37 206 0.0 2.0 0.00 0.00 0.00 67 1021.1
20260510073420 37 347 1.0 2.0 0.00 0.00 0.00 67 1021.2
20260510072917 37 245 1.0 5.0 0.00 0.00 0.00 67 1021.0
20260510072414 37 86 2.0 6.0 0.00 0.00 0.00 67 1020.9
20260510071909 37 14 2.0 2.0 0.00 0.00 0.00 67 1021.1
20260510071406 37 252 1.0 2.0 0.00 0.00 0.00 67 1021.1
20260510070905 37 326 2.0 3.0 0.00 0.00 0.00 67 1021.0
20260510070401 37 28 3.0 3.0 0.00 0.00 0.00 67 1020.7
20260510065856 37 257 1.0 6.0 0.00 0.00 0.00 68 1020.7
20260510065353 37 290 2.0 2.0 0.00 0.00 0.00 68 1020.7
20260510064850 37 263 2.0 2.0 0.00 0.00 0.00 69 1020.9
20260510064348 37 21 1.0 6.0 0.00 0.00 0.00 69 1020.6
20260510063844 37 249 1.0 2.0 0.00 0.00 0.00 69 1020.8
20260510063340 37 288 1.0 2.0 0.00 0.00 0.00 68 1020.6
20260510062837 37 168 1.0 3.0 0.00 0.00 0.00 68 1020.6
20260510062332 37 218 1.0 2.0 0.00 0.00 0.00 68 1020.5
20260510061828 37 357 2.0 3.0 0.00 0.00 0.00 68 1020.3
20260510061325 37 214 1.0 3.0 0.00 0.00 0.00 69 1020.3
20260510060821 37 305 1.0 3.0 0.00 0.00 0.00 69 1020.2
20260510060319 37 253 1.0 2.0 0.00 0.00 0.00 69 1020.2
20260510055815 37 314 1.0 2.0 0.00 0.00 0.00 69 1020.1
20260510055314 37 277 2.0 5.0 0.00 0.00 0.00 69 1020.2
20260510054813 38 220 0.0 5.0 0.00 0.00 0.00 69 1020.2
20260510054310 38 206 2.0 3.0 0.00 0.00 0.00 69 1020.3
20260510053809 37 348 2.0 5.0 0.00 0.00 0.00 71 1020.2
20260510053300 37 293 3.0 3.0 0.00 0.00 0.00 72 1020.1
20260510052756 37 9 5.0 7.0 0.00 0.00 0.00 74 1019.7
20260510052252 37 332 1.0 2.0 0.00 0.00 0.00 75 1020.1
20260510051748 37 204 1.0 1.0 0.00 0.00 0.00 76 1019.7
20260510051245 37 216 0.0 1.0 0.00 0.00 0.00 76 1019.6
20260510050742 37 234 1.0 1.0 0.00 0.00 0.00 76 1019.8
20260510050239 37 248 1.0 1.0 0.00 0.00 0.00 76 1019.7
20260510045736 37 232 0.0 1.0 0.00 0.00 0.00 76 1019.8
20260510045232 37 216 0.0 1.0 0.00 0.00 0.00 77 1019.7
20260510044729 36 226 2.0 2.0 0.00 0.00 0.00 77 1019.5
20260510044227 36 231 1.0 1.0 0.00 0.00 0.00 77 1019.6
20260510043722 36 344 1.0 3.0 0.00 0.00 0.00 77 1019.5
20260510043219 36 189 1.0 1.0 0.00 0.00 0.00 78 1019.4
20260510042716 36 204 0.0 1.0 0.00 0.00 0.00 78 1019.5
20260510042212 36 196 0.0 2.0 0.00 0.00 0.00 78 1019.3
20260510041709 36 201 0.0 1.0 0.00 0.00 0.00 78 1019.2
20260510041207 36 187 0.0 2.0 0.00 0.00 0.00 78 1019.2
20260510040703 36 65 1.0 2.0 0.00 0.00 0.00 78 1019.4
20260510040200 36 228 0.0 1.0 0.00 0.00 0.00 78 1019.1
20260510035655 36 78 1.0 2.0 0.00 0.00 0.00 78 1019.0
20260510035151 36 242 0.0 2.0 0.00 0.00 0.00 78 1019.1
20260510034647 36 179 0.0 1.0 0.00 0.00 0.00 77 1019.0
20260510034145 37 112 1.0 2.0 0.00 0.00 0.00 77 1018.9
20260510033641 37 172 1.0 5.0 0.00 0.00 0.00 77 1018.8
20260510033139 37 44 3.0 3.0 0.00 0.00 0.00 76 1019.0
20260510032635 37 128 1.0 3.0 0.00 0.00 0.00 76 1018.6
20260510032131 37 163 0.0 5.0 0.00 0.00 0.00 76 1018.7
20260510031626 38 350 2.0 2.0 0.00 0.00 0.00 76 1018.5
20260510031123 38 193 0.0 1.0 0.00 0.00 0.00 76 1018.6
20260510030617 38 178 1.0 1.0 0.00 0.00 0.00 76 1018.4
20260510030115 38 132 1.0 2.0 0.00 0.00 0.00 76 1018.5
20260510025612 38 111 1.0 6.0 0.00 0.00 0.00 76 1018.3
20260510025109 38 38 3.0 5.0 0.00 0.00 0.00 76 1018.5
20260510024606 38 104 3.0 6.0 0.00 0.00 0.00 76 1017.9
20260510024103 38 136 1.0 5.0 0.00 0.00 0.00 76 1018.2
20260510023559 39 78 2.0 3.0 0.00 0.00 0.00 76 1017.7
20260510023056 39 66 3.0 8.0 0.00 0.00 0.00 77 1017.7
20260510022555 39 137 1.0 5.0 0.00 0.00 0.00 77 1017.8
20260510022050 39 191 1.0 3.0 0.00 0.00 0.00 78 1017.7
20260510021546 39 24 1.0 6.0 0.00 0.00 0.00 79 1017.7
20260510021044 39 210 0.0 5.0 0.00 0.00 0.00 79 1017.5
20260510020538 39 333 1.0 7.0 0.00 0.00 0.00 79 1017.3
20260510020034 39 76 3.0 8.0 0.00 0.00 0.00 79 1017.3
20260510015530 40 65 4.0 6.0 0.00 0.00 0.00 79 1017.2
20260510015026 40 83 5.0 7.0 0.00 0.00 0.00 79 1017.1
20260510014523 40 200 1.0 6.0 0.00 0.00 0.00 78 1017.0
20260510014020 41 62 2.0 5.0 0.00 0.00 0.00 78 1017.1
20260510013514 41 99 1.0 3.0 0.00 0.00 0.00 78 1016.9
20260510013010 41 104 2.0 3.0 0.00 0.00 0.00 78 1016.9
20260510012505 41 168 3.0 6.0 0.00 0.00 0.00 78 1016.8
20260510012001 42 91 2.0 5.0 0.00 0.00 0.00 77 1016.7
20260510011455 42 210 2.0 5.0 0.00 0.00 0.00 77 1016.5
20260510010951 42 101 5.0 7.0 0.00 0.00 0.00 77 1016.5
20260510010443 43 158 3.0 6.0 0.00 0.00 0.00 76 1016.6
20260510005940 43 38 2.0 8.0 0.00 0.00 0.00 75 1016.6
20260510005436 44 95 4.0 6.0 0.00 0.00 0.00 73 1016.2
20260510004933 44 155 4.0 7.0 0.00 0.00 0.00 71 1016.1
20260510004430 45 105 3.0 9.0 0.00 0.00 0.00 69 1015.9
20260510003929 46 164 1.0 6.0 0.00 0.00 0.00 66 1015.7
20260510003425 46 85 2.0 3.0 0.00 0.00 0.00 66 1015.8
20260510002924 46 168 1.0 3.0 0.00 0.00 0.00 66 1015.5
20260510002422 46 151 2.0 3.0 0.00 0.00 0.00 64 1015.5
20260510001918 48 104 4.0 8.0 0.00 0.00 0.00 59 1015.4
20260510001416 49 30 3.0 8.0 0.00 0.00 0.00 51 1015.5
20260510000913 49 318 5.0 10.0 0.00 0.00 0.00 50 1015.4
20260510000411 49 39 4.0 10.0 0.00 0.00 0.00 49 1015.3
20260509235905 49 261 4.0 7.0 0.00 0.00 0.00 50 1015.4
20260509235403 49 87 2.0 10.0 0.00 0.00 0.00 50 1015.1
20260509234858 49 327 3.0 6.0 0.00 0.00 0.00 49 1015.3
20260509234356 50 303 3.0 7.0 0.00 0.00 0.00 48 1014.9
20260509233854 50 38 3.0 6.0 0.00 0.00 0.00 49 1015.1
20260509233351 50 316 3.0 5.0 0.00 0.00 0.00 49 1015.1
20260509232846 50 309 3.0 8.0 0.00 0.00 0.00 48 1015.0
20260509232345 50 279 2.0 7.0 0.00 0.00 0.00 47 1014.9
20260509231840 50 192 4.0 11.0 0.00 0.00 0.00 47 1014.7
20260509231337 50 284 4.0 8.0 0.00 0.00 0.00 47 1014.8
20260509230835 50 310 3.0 7.0 0.00 0.00 0.00 47 1014.7
20260509230332 50 1 3.0 9.0 0.00 0.00 0.00 48 1014.9
20260509225827 50 283 5.0 9.0 0.00 0.00 0.00 47 1014.9
20260509225324 50 13 4.0 8.0 0.00 0.00 0.00 48 1014.9
20260509224820 50 31 2.0 10.0 0.00 0.00 0.00 48 1014.9
20260509224316 50 332 3.0 8.0 0.00 0.00 0.00 48 1014.8
20260509223813 50 273 6.0 11.0 0.00 0.00 0.00 48 1014.5
20260509223310 50 344 3.0 7.0 0.00 0.00 0.00 47 1014.7
20260509222807 50 340 3.0 8.0 0.00 0.00 0.00 46 1014.6
20260509222306 50 41 3.0 11.0 0.00 0.00 0.00 46 1014.8
20260509221758 50 317 5.0 8.0 0.00 0.00 0.00 46 1015.0
20260509221255 50 192 5.0 8.0 0.00 0.00 0.00 47 1014.6
20260509220751 50 342 5.0 9.0 0.00 0.00 0.00 47 1014.5
20260509220247 51 55 3.0 7.0 0.00 0.00 0.00 46 1014.6
20260509215742 51 351 3.0 8.0 0.00 0.00 0.00 47 1014.5
20260509215240 51 14 3.0 11.0 0.00 0.00 0.00 46 1014.4
20260509214737 51 271 3.0 9.0 0.00 0.00 0.00 45 1014.5
20260509214234 51 323 3.0 10.0 0.00 0.00 0.00 44 1014.5
20260509213731 51 208 3.0 9.0 0.00 0.00 0.00 45 1014.5
20260509213226 51 185 3.0 8.0 0.00 0.00 0.00 43 1014.4
20260509212724 51 332 5.0 14.0 0.00 0.00 0.00 43 1014.5
20260509212221 52 197 3.0 15.0 0.00 0.00 0.00 43 1014.5
20260509211717 51 318 5.0 10.0 0.00 0.00 0.00 44 1014.3
20260509211213 52 6 3.0 10.0 0.00 0.00 0.00 44 1014.2
20260509210710 53 20 4.0 8.0 0.00 0.00 0.00 43 1014.3
20260509210208 53 45 4.0 13.0 0.00 0.00 0.00 44 1014.4
20260509205707 52 175 5.0 10.0 0.00 0.00 0.00 44 1014.3
20260509205207 52 353 7.0 10.0 0.00 0.00 0.00 46 1014.2
20260509204703 52 324 4.0 8.0 0.00 0.00 0.00 46 1014.2
20260509204159 52 21 4.0 8.0 0.00 0.00 0.00 47 1014.5
20260509203655 50 228 5.0 11.0 0.00 0.00 0.00 47 1014.3
20260509203154 51 10 7.0 13.0 0.00 0.00 0.00 46 1014.2
20260509202649 51 257 8.0 11.0 0.00 0.00 0.00 45 1014.2
20260509202144 51 1 3.0 13.0 0.00 0.00 0.00 47 1014.2
20260509201640 51 338 4.0 8.0 0.00 0.00 0.00 47 1014.3
20260509201137 51 233 4.0 10.0 0.00 0.00 0.00 47 1014.3
20260509200633 50 295 7.0 10.0 0.00 0.00 0.00 48 1014.2
20260509200128 50 304 8.0 10.0 0.00 0.00 0.00 47 1014.3
20260509195624 50 294 5.0 10.0 0.00 0.00 0.00 47 1014.2
20260509195120 51 272 3.0 7.0 0.00 0.00 0.00 46 1014.3
20260509194619 51 191 3.0 9.0 0.00 0.00 0.00 46 1014.2
20260509194117 50 17 7.0 11.0 0.00 0.00 0.00 47 1014.2
20260509193612 50 339 6.0 17.0 0.00 0.00 0.00 47 1014.3
20260509193108 50 24 3.0 16.0 0.00 0.00 0.00 47 1014.2
20260509192605 50 10 4.0 10.0 0.00 0.00 0.00 48 1014.0
20260509192100 52 84 3.0 9.0 0.00 0.00 0.00 46 1013.8
20260509191555 52 305 5.0 14.0 0.00 0.00 0.00 45 1013.9
20260509191051 52 328 5.0 9.0 0.00 0.00 0.00 47 1013.9
20260509190548 52 256 4.0 9.0 0.00 0.00 0.00 45 1014.0
20260509190046 51 249 5.0 7.0 0.00 0.00 0.00 48 1014.0
20260509185543 53 348 8.0 13.0 0.00 0.00 0.00 46 1013.8
20260509185039 52 258 1.0 11.0 0.00 0.00 0.00 47 1013.9
20260509184538 52 346 4.0 11.0 0.00 0.00 0.00 47 1014.2
20260509184033 51 356 2.0 11.0 0.00 0.00 0.00 47 1013.7
20260509183529 51 299 5.0 11.0 0.00 0.00 0.00 47 1013.8
20260509183025 51 28 4.0 9.0 0.00 0.00 0.00 48 1013.6
20260509182521 53 336 5.0 11.0 0.00 0.00 0.00 45 1013.8
20260509182019 52 97 2.0 9.0 0.00 0.00 0.00 47 1013.7
20260509181517 51 202 2.0 13.0 0.00 0.00 0.00 47 1013.6
20260509181014 51 225 5.0 9.0 0.00 0.00 0.00 48 1013.5
20260509180509 49 306 2.0 10.0 0.00 0.00 0.00 49 1013.7
20260509180008 50 315 7.0 11.0 0.00 0.00 0.00 48 1013.6
20260509175502 51 177 3.0 10.0 0.00 0.00 0.00 47 1013.5
20260509174959 51 263 4.0 7.0 0.00 0.00 0.00 46 1013.5
20260509174456 51 315 2.0 13.0 0.00 0.00 0.00 47 1013.5
20260509173950 51 313 6.0 11.0 0.00 0.00 0.00 47 1013.9
20260509173445 50 276 5.0 11.0 0.00 0.00 0.00 48 1013.4
20260509172942 49 5 5.0 13.0 0.00 0.00 0.00 50 1013.3
20260509172439 49 248 3.0 7.0 0.00 0.00 0.00 49 1013.4
20260509171934 49 277 8.0 15.0 0.00 0.00 0.00 49 1013.4
20260509171431 49 306 5.0 9.0 0.00 0.00 0.00 48 1013.3
20260509170927 50 300 5.0 7.0 0.00 0.00 0.00 47 1013.4
20260509170423 50 307 3.0 10.0 0.00 0.00 0.00 48 1013.6
20260509165919 50 356 2.0 10.0 0.00 0.00 0.00 48 1013.6
20260509165413 51 263 5.0 10.0 0.00 0.00 0.00 47 1013.3
20260509164909 50 313 6.0 9.0 0.00 0.00 0.00 47 1013.3
20260509164405 50 253 3.0 6.0 0.00 0.00 0.00 48 1013.4
20260509163901 50 251 5.0 8.0 0.00 0.00 0.00 48 1013.3
20260509163358 49 8 4.0 10.0 0.00 0.00 0.00 48 1013.3
20260509162857 49 2 5.0 16.0 0.00 0.00 0.00 49 1013.2
20260509162356 48 268 2.0 8.0 0.00 0.00 0.00 50 1013.4
20260509161852 49 242 3.0 7.0 0.00 0.00 0.00 50 1013.3
20260509161348 48 304 4.0 7.0 0.00 0.00 0.00 50 1013.3
20260509160844 49 267 3.0 9.0 0.00 0.00 0.00 50 1013.5
20260509160340 48 255 5.0 7.0 0.00 0.00 0.00 50 1013.4
20260509155835 47 327 3.0 10.0 0.00 0.00 0.00 53 1013.5
20260509155332 48 355 3.0 7.0 0.00 0.00 0.00 51 1013.5
20260509154828 47 298 6.0 8.0 0.00 0.00 0.00 52 1013.3
20260509154325 47 346 4.0 11.0 0.00 0.00 0.00 51 1013.3
20260509153822 47 53 6.0 14.0 0.00 0.00 0.00 50 1013.4
20260509153318 46 148 2.0 7.0 0.00 0.00 0.00 51 1013.2
20260509152815 46 51 5.0 13.0 0.00 0.00 0.00 50 1013.3
20260509152311 46 7 1.0 7.0 0.00 0.00 0.00 51 1013.0
20260509151809 44 352 3.0 11.0 0.00 0.00 0.00 52 1013.1
20260509151305 46 210 6.0 8.0 0.00 0.00 0.00 50 1013.1
20260509150804 46 299 3.0 14.0 0.00 0.00 0.00 52 1013.0
20260509150301 45 22 5.0 11.0 0.00 0.00 0.00 51 1013.2
20260509145758 44 66 3.0 11.0 0.00 0.00 0.00 53 1013.0
20260509145257 45 334 5.0 8.0 0.00 0.00 0.00 52 1012.9
20260509144754 44 319 5.0 10.0 0.00 0.00 0.00 53 1012.8
20260509144251 43 240 1.0 9.0 0.00 0.00 0.00 54 1012.8
20260509143748 43 133 3.0 7.0 0.00 0.00 0.00 53 1013.0
20260509143246 43 218 2.0 11.0 0.00 0.00 0.00 54 1013.1
20260509142741 45 111 5.0 8.0 0.00 0.00 0.00 55 1012.9
20260509142238 45 327 3.0 7.0 0.00 0.00 0.00 55 1012.9
20260509141734 44 324 3.0 7.0 0.00 0.00 0.00 57 1012.9
20260509141231 43 266 2.0 8.0 0.00 0.00 0.00 58 1012.9
20260509140728 43 295 4.0 11.0 0.00 0.00 0.00 58 1012.9
20260509140225 43 44 4.0 8.0 0.00 0.00 0.00 59 1012.8
20260509135722 43 348 5.0 8.0 0.00 0.00 0.00 59 1013.0
20260509135220 42 41 4.0 9.0 0.00 0.00 0.00 60 1012.8
20260509134717 42 279 2.0 6.0 0.00 0.00 0.00 61 1012.8
20260509134214 41 61 3.0 7.0 0.00 0.00 0.00 61 1012.7
20260509133711 41 294 3.0 9.0 0.00 0.00 0.00 63 1012.5
20260509133208 40 76 3.0 7.0 0.00 0.00 0.00 63 1012.7
20260509132707 40 225 3.0 8.0 0.00 0.00 0.00 64 1012.6
20260509132205 40 336 2.0 7.0 0.00 0.00 0.00 64 1012.4
20260509131701 40 216 1.0 6.0 0.00 0.00 0.00 64 1012.5
20260509131158 39 337 2.0 9.0 0.00 0.00 0.00 65 1012.7
20260509130653 39 75 5.0 7.0 0.00 0.00 0.00 66 1012.4
20260509130150 39 205 1.0 2.0 0.00 0.00 0.00 67 1012.4
20260509125646 38 197 2.0 5.0 0.00 0.00 0.00 68 1012.2
20260509125143 38 182 2.0 8.0 0.00 0.00 0.00 68 1012.3
20260509124640 38 300 1.0 6.0 0.00 0.00 0.00 69 1012.1
20260509124137 38 190 2.0 6.0 0.00 0.00 0.00 69 1012.0
20260509123635 38 4 4.0 6.0 0.00 0.00 0.00 69 1012.1
20260509123131 37 4 3.0 3.0 0.00 0.00 0.00 70 1012.0
20260509122627 38 284 2.0 5.0 0.00 0.00 0.00 69 1011.9
20260509122124 38 326 1.0 5.0 0.00 0.00 0.00 69 1011.8
20260509121621 38 317 3.0 5.0 0.00 0.00 0.00 68 1011.9
20260509121119 38 199 3.0 6.0 0.00 0.00 0.00 69 1011.8
20260509120616 38 354 3.0 6.0 0.00 0.00 0.00 69 1011.7
20260509120115 37 319 2.0 3.0 0.00 0.00 0.00 70 1011.6
20260509115612 37 193 1.0 3.0 0.00 0.00 0.00 71 1011.6
20260509115109 37 322 3.0 6.0 0.00 0.00 0.00 71 1011.4
20260509114607 37 226 1.0 3.0 0.00 0.00 0.00 71 1011.3
20260509114106 37 178 1.0 5.0 0.00 0.00 0.00 71 1011.2
20260509113603 37 79 2.0 5.0 0.00 0.00 0.00 71 1010.9
20260509113101 36 244 2.0 3.0 0.00 0.00 0.00 71 1011.0
20260509112557 36 220 1.0 3.0 0.00 0.00 0.00 71 1010.9
20260509112054 36 226 1.0 6.0 0.00 0.00 0.00 71 1010.8
20260509111551 36 216 4.0 6.0 0.00 0.00 0.00 70 1010.8
20260509111048 36 203 2.0 3.0 0.00 0.00 0.00 70 1010.8
20260509110545 37 316 3.0 5.0 0.00 0.00 0.00 70 1010.5
20260509110042 37 299 3.0 6.0 0.00 0.00 0.00 70 1010.5